Location: Iesi
(43.5167°N, 13.2333°E)
Time: 01:32:36
(UTC+00:00)

Cosmos 1741 Rocket - Pass Details

Date: 08 August 2020
Orbit: 760 x 783 km, 74.0° (Epoch: 19 September)

Event Time Altitude Azimuth Distance (km) Brightness Sun altitude
Exits shadow 21:48:19 50° 258° (WSW) 973 4.5 -27.6°
Maximum altitude 21:49:10 56° 294° (WNW) 910 4.5 -27.7°
Drops below altitude 10° 21:54:21 10° 13° (NNE) 2,326 7.2 -28.0°
Sets 21:56:48 0° 17° (NNE) 3,261 8.0 -28.2°
